METEOR 2-5 DEB, 31404

Orbit data source: Space-Track

METEOR 2-5 DEB, 31404 is space debris in LEO originally from a launch on Wed, 31 Oct 1979 UTC launched from the Plesetsk Missile And Space Complex (PKMTR). Debris objects in space refer to the collection of defunct objects orbiting the Earth. Examples of debris include non-operational satellites, rocket bodies, and fragments generated from explosions, collisions, or faulty payload assembly.

Loading next visibility...
Identifier
31404, 1979-095T
Orbit
LEO
Country
Flag of CISCIS
Related business
Manufacturer
Unknown
Mission
Spacecraft
Bus & Motor
Unknown
Mass
Unknown
Launch date (UTC)
1979-10-31 (46 years ago)
Launch vehicle
Unknown
Launch site
Plesetsk Missile And Space Complex (PKMTR)
Object type
Payload
Rocket body
Debris
Shape & HBR
Unknown shape, 0.1 m
Radar Cross Section
Small (<0.1 m²)

Expand to show TLE details & history
Last TLE update: 1 week ago

TLE from 1 week ago
0 METEOR 2-5 DEB
1 31404U 79095T   25286.36479192  .00030188  00000-0  57220-2 0  9994
2 31404  81.1867 316.5447 0011463 177.0492 201.5321 14.64082526640282
Epoch: 2025-10-13T08:45Z
TLE epoch observation values (Epoch: 2025-10-13T08:45:18.021Z)
Latitude
18.30077°
Longitude
165.9745°
Altitude
689.976 km
Speed
7.509 km/s
True Right ascension
21h 17m 52s
True Declination
18° 11' 51"
Sunlit
Object was in full shadow at epoch
Visualization orbit readout
Latitude
Unknown
Longitude
Unknown
Altitude
Unknown
Speed
Unknown
Apparent Right ascension
Unknown
Apparent Declination
Unknown
Sunlit
N/A
Visualization observer readout
Local Sidereal Time
13:53:57
Azimuth
Unknown
Elevation
Unknown
Doppler factor
Unknown
Orbital elements
Apogee altitude
685.215 km
Perigee altitude
669.04 km
Semi-major axis
7,055.265 km
Eccentricity
0.00115
Inclination
81.1867°
RAAN
316.5447°
Arg. of periapsis
177.0492°
True anomaly
201.48395°
Mean anomaly
201.5321°
Eccentric anomaly
201.50802°
Mean motion
3.66246 °/min
Orbital period
98.29 mins
BSTAR
0.005722
Loading maneuver chart data...
Computing Atmospheric mass density...

Documentation

Showing up to 5 results
|